Location: Chapel Hill
(35.9134°N, 79.0560°W)
Time: 10:06:14
(UTC-04:00)

ACS3 Solar Sail - Pass Details

Date: 23 June 2024
Orbit: 992 x 1023 km, 97.4° (Epoch: 11 July)

Event Time Altitude Azimuth Distance (km) Brightness Sun altitude
Exits shadow 23:06:28 37° 187° (S) 1,511 5.4 -22.9°
Maximum altitude 23:09:04 69° 260° (W) 1,061 5.0 -23.2°
Drops below altitude 10° 23:15:17 10° 343° (NNW) 2,763 8.2 -23.9°
Sets 23:17:47 0° 346° (NNW) 3,715 9.1 -24.2°
